User: anonymous   Login
Location: Campillo
(40.8621°N, 4.2488°W)
Time: 00:43:43
(UTC+00:00)
Language:

Cosmos 1933 - Orbit

View from above orbital plane
View from above orbital plane
View from above satellite
View from above satellite

Ground track
Ground track

The orbit data is extracted from the following two-line orbital elements,

1 18958U 88020A   21213.60416092  .00000697  00000-0  48396-4 0  9992
2 18958  82.5288  89.4748 0010984 188.6333 171.4706 15.03965340817895
Epoch (UTC): 01 August 2021 14:29:59
Eccentricity: 0.0010984
inclination: 82.5288°
perigee height: 547 km
apogee height: 562 km
right ascension of ascending node: 89.4748°
argument of perigee: 188.6333°
revolutions per day: 15.03965340
mean anomaly at epoch: 171.4706°
orbit number at epoch: 81789

The dashed part of the orbit path shows where the satellite is in the earth's shadow,  

DLR